Weather History for Havre-Saint-Pierre, QC

Change the Weather History Date:

Friday, March 30, 2012

  Actual Average Record
Temperature  
Mean Temperature 24 °F -  
Max Temperature 30 °F 37 °F 42 °F (1999)
Min Temperature 19 °F 23 °F 6 °F (2008)
Degree Days  
Heating Degree Days 40    
Moisture  
Dew Point 11 °F    
Average Humidity 54    
Maximum Humidity 75    
Minimum Humidity 43    
Precipitation  
Precipitation 0.00 in - - ()
Sea Level Pressure  
Sea Level Pressure 29.65 in    
Wind  
Wind Speed 7 mph ()    
Max Wind Speed 18 mph    
Max Gust Speed 25 mph    
Visibility 9.0 miles    
Events      
Averages and records for this station are not official NWS values.
T = Trace of Precipitation, MM = Missing Value Source: Averaged Metar Reports

Daily Weather History Graph

Daily Weather History Graph

Search for Another Location

Airport:

Trip Planner

Search our weather history database for the weather conditions in past years. The results will help you decide how hot, cold, wet, or windy it might be!

Date:

Astronomy

Mar. 30, 2012 Rise Set
Actual Time 5:54 AM EDT 6:44 PM EDT
Civil Twilight 5:21 AM EDT 7:17 PM EDT
Nautical Twilight 4:42 AM EDT 7:56 PM EDT
Astronomical Twilight 4:00 AM EDT 8:38 PM EDT
Moon 10:27 AM EDT (3/30) 1:46 AM EDT (3/30)
Length of Visible Light 13h 55m
Length of Day
12h 49m
Waxing Crescent, 49% of the Moon is Illuminated
Mar 30
Waxing Crescent
Mar 30
First Quarter
Apr 6
Full
Apr 13
Last Quarter
Apr 21
New

Hourly Weather History & Observations

Time (EDT) Temp. Windchill Dew Point Humidity Pressure Visibility Wind Dir Wind Speed Gust Speed Precip Events Conditions
12:00 AM 23.0 °F - 8.6 °F 54% 29.55 in 9.0 mi West 2.3 mph - N/A   Overcast
1:00 AM 24.8 °F 17.9 °F 8.6 °F 50% 29.55 in 9.0 mi West 5.8 mph - N/A   Overcast
2:00 AM 24.8 °F 17.9 °F 8.6 °F 50% 29.55 in 9.0 mi West 5.8 mph - N/A   Overcast
3:00 AM 21.2 °F 11.7 °F 6.8 °F 54% 29.55 in 9.0 mi West 8.1 mph - N/A   Partly Cloudy
4:00 AM 21.2 °F 12.6 °F 5.0 °F 50% 29.55 in 9.0 mi WNW 6.9 mph - N/A   Clear
5:00 AM 19.4 °F 10.4 °F 5.0 °F 54% 29.56 in 9.0 mi WNW 6.9 mph - N/A   Clear
6:00 AM 19.4 °F 11.5 °F 3.2 °F 49% 29.58 in 9.0 mi NW 5.8 mph - N/A   Clear
7:00 AM 19.4 °F 14.3 °F 3.2 °F 49% 29.59 in 9.0 mi NNW 3.5 mph - N/A   Clear
8:00 AM 23.0 °F 13.9 °F 5.0 °F 46% 29.60 in 9.0 mi NNW 8.1 mph - N/A   Clear
9:00 AM 24.8 °F 16.1 °F 6.8 °F 46% 29.62 in 9.0 mi NNW 8.1 mph - N/A   Clear
10:00 AM 26.6 °F 18.2 °F 6.8 °F 43% 29.64 in 9.0 mi WNW 8.1 mph - N/A   Clear
11:00 AM 28.4 °F 19.7 °F 8.6 °F 43% 29.65 in 9.0 mi West 9.2 mph - N/A   Clear
12:00 PM 28.4 °F 19.1 °F 10.4 °F 47% 29.65 in 9.0 mi WSW 10.4 mph - N/A   Clear
1:00 PM 30.2 °F 20.8 °F 14.0 °F 51% 29.65 in 9.0 mi WSW 11.5 mph - N/A   Clear
2:00 PM 28.4 °F 16.2 °F 15.8 °F 59% 29.66 in 9.0 mi WSW 17.3 mph 24.2 mph N/A   Mostly Cloudy
3:00 PM 30.2 °F 18.9 °F 19.4 °F 64% 29.67 in 9.0 mi WSW 16.1 mph 24.2 mph N/A   Scattered Clouds
4:00 PM 30.2 °F 18.1 °F 19.4 °F 64% 29.68 in 9.0 mi WSW 18.4 mph 25.3 mph N/A   Overcast
5:00 PM 30.2 °F 18.1 °F 21.2 °F 69% 29.68 in 9.0 mi West 18.4 mph 24.2 mph N/A   Mostly Cloudy
6:00 PM 30.2 °F 20.2 °F 23.0 °F 75% 29.70 in 9.0 mi West 12.7 mph - N/A   Overcast
7:00 PM 30.2 °F 25.4 °F 17.6 °F 60% 29.74 in 9.0 mi North 4.6 mph - N/A   Overcast
8:00 PM 28.4 °F 21.2 °F 14.0 °F 55% 29.78 in 9.0 mi NNE 6.9 mph - N/A   Overcast
9:00 PM 26.6 °F 19.1 °F 12.2 °F 55% 29.81 in 9.0 mi NNE 6.9 mph - N/A   Overcast
10:00 PM 24.8 °F 19.1 °F 10.4 °F 54% 29.83 in 9.0 mi North 4.6 mph - N/A   Clear
11:00 PM 23.0 °F 15.8 °F 10.4 °F 59% 29.85 in 9.0 mi North 5.8 mph - N/A   Clear